Regional Weather Roundup
Issued by NWS

Home | Current Version | Previous Version | Text Only | Print | Product List | Glossary Off
Versions: 1 2 3 4 5 6 7 8 9 10 11 12 13 14 15 16 17 18 19 20 21 22 23 24 25 26 27 28 29 30 31 32 33 34 35 36 37 38 39 40 41 42 43 44 45 46 47 48 49 50

000
ASUS45 KSLC 191610
RWRUT

UTAH REGIONAL WEATHER ROUNDUP
NATIONAL WEATHER SERVICE SALT LAKE CITY UT
1000 AM MDT THU OCT 19 2017

UTZ001>011-023>025-191700-

NORTHERN UTAH

CITY           SKY/WX    TMP DP  RH WIND       PRES   REMARKS
BRIGHAM CITY   SUNNY     44  27  51 CALM      30.02F
DUGWAY         MOSUNNY   49  16  27 SE7       30.09
HILL AFB       SUNNY     50  18  28 E18G25    30.02R
LOGAN          MOSUNNY   42  28  57 NW3       30.04S
OGDEN          SUNNY     51  21  30 S6        30.01R
SALT LAKE CITY MOSUNNY   56  28  34 SE9       30.00F
TOOELE VALLEY  SUNNY     52  34  50 NE3       30.01S
WENDOVER       MOSUNNY   48  22  35 CALM      30.02S
WEST JORDAN    SUNNY     60  28  29 S10       30.02S

$$

UTZ011>015-024>027-191700-

CENTRAL/NORTHEAST UTAH

CITY           SKY/WX    TMP DP  RH WIND       PRES   REMARKS
PROVO AIRPORT  SUNNY     50  40  68 SW5       30.05S
MOAB/CANYONLAN PTSUNNY   58  18  21 SE8       30.07S
DELTA          CLOUDY    52  27  37 CALM      30.02F
PRICE          CLOUDY    54  18  24 CALM      30.11F
RICHFIELD      MOSUNNY   57  28  33 CALM      30.09S
ROOSEVELT      CLOUDY    48  23  37 CALM      30.15R
VERNAL         CLOUDY    51  18  27 CALM      30.12S

$$

UTZ013>016-019>022-027-191700-

SOUTHERN UTAH

CITY           SKY/WX    TMP DP  RH WIND       PRES   REMARKS
BRYCE CANYON   CLOUDY    48  40  73 W3        30.21R
CEDAR CITY     PTSUNNY   57  44  62 SW3       30.06S
MILFORD        PTSUNNY   58  35  42 S12       30.03R
ST GEORGE      MOSUNNY   61  34  36 NW5       29.98R
HANKSVILLE     CLOUDY    54  23  30 N3        30.09F
KANAB          SUNNY     64  36  34 N9        30.10S
BLANDING         N/A     58  25  28 CALM      30.21S

$$

REGIONAL REPORTS     COLORADO/ARIZONA

CITY           SKY/WX    TMP DP  RH WIND       PRES   REMARKS
CRAIG, CO      CLOUDY    42  23  46 CALM      30.15F
GRAND JUNCTION CLOUDY    53  19  26 SE8       30.11S
RIFLE, CO      SUNNY     49  20  31 CALM      30.16S
MONTROSE, CO   CLOUDY    52  23  32 S6        30.17F
CORTEZ, CO     SUNNY     59  28  30 CALM      30.16S
COLORADO CITY    N/A     68  37  32 CALM      30.07S
PAGE, AZ       PTSUNNY   61  34  36 S3        30.06R
GRAND CANYON   PTSUNNY   49  46  90 CALM      30.17S
KINGMAN, AZ    SUNNY     70  32  24 CALM      29.96R
FLAGSTAFF, AZ  MOSUNNY   61  34  36 SW5       30.19R

$$

REGIONAL REPORTS    NEVADA/IDAHO/WYOMING

CITY           SKY/WX    TMP DP  RH WIND       PRES   REMARKS
LAS VEGAS, NV  PTSUNNY   75  22  13 N3        29.89S
ELY, NY        SUNNY     51  10  19 SE7       30.08S
ELKO, NV       MOSUNNY   34  14  43 E3        30.03F
POCATELLO, ID  SUNNY     48  29  47 NE6       29.97F
BURLEY, ID     SUNNY     47  29  49 NE3       29.92F
FORT BRIDGER,    N/A     46  15  29 CALM      30.16S
EVANSTON, WY   CLOUDY    50  14  23 S3        30.12F
ROCK SPRINGS,  CLOUDY    40  14  34 CALM      30.13S
KEMMERER, WY   CLOUDY    37  14  38 N9        30.14S WCI  31

$$



USA.gov is the U.S. government's official web portal to all federal, state and local government web resources and services.